Starlink 11168

operational
NORAD ID: 60183 Int'l Des: 2024-124 Owner: SPXS Country: US Constellation: starlink
LEOCIRCULAR

About Starlink 11168

Description loading...

Live Position

Loading 3D Globe...

Upcoming Passes

Altitude History

Altitude vs Time

uPlot chart will show altitude changes over time

Two-Line Element Set

1 60183U 24124A 26036.97249360 .00003758 00000-0 35850-4 0 9996
2 60183 53.1581 317.5297 0001187 76.0491 284.0658 15.69717792 92740
Epoch: Feb 5, 2026 • Age: 8 hours

Current Status

Altitude 361.2 km
Velocity 7.69 km/s
Sub-Earth Point -4.44°S, 71.87°E
Launch Date Jul 3, 2024
Age 1.5 years
Type internet

Technical Details

Classification Payload
Mass 960.00 kg
Dry Mass 910.00 kg
Total Mass 960.00 kg
Length 0.30 m
Diameter 4.10 m
Span 29.00 m
Shape Box + pan
Manufacturer SPXS
Bus Type Starlink V2MD
Phase Status In Orbit
Owner/State SPXS/US

Large Constellations

Loading constellations...